Location: Albany
(35.0000°S, 118.0000°E)
Time: 09:08:36
(UTC-04:00)

SJ-6B - Visible Passes

Search period start: 30 July 2014 00:00
Search period end: 09 August 2014 00:00
Orbit: 520 x 599 km, 97.8° (Epoch: 29 July)

Date Brightness Start Highest point End Pass type
(mag) Time Alt. Az. Time Alt. Az. Time Alt. Az.
30 Jul 3.0 06:20:37 10° S 06:24:51 86° WSW 06:28:55 10° NNW visible
30 Jul 4.5 17:03:25 10° NE 17:07:11 35° ESE 17:11:04 10° S visible
31 Jul 2.9 06:19:19 10° SSE 06:23:33 90° WSW 06:27:37 10° NNW visible
31 Jul 4.6 17:02:09 10° NE 17:05:54 34° ESE 17:09:45 10° S visible
01 Aug 2.9 06:18:02 10° SSE 06:22:15 87° E 06:26:18 10° NNW visible
01 Aug 4.7 17:00:53 10° NE 17:04:36 33° ESE 17:08:26 10° S visible
01 Aug 4.5 18:36:51 10° NW 18:39:33 17° W 18:42:18 10° SW visible
02 Aug 2.9 06:16:44 10° SSE 06:20:56 84° ENE 06:24:58 10° N visible
02 Aug 4.7 16:59:36 10° NE 17:03:19 32° ESE 17:07:06 10° S visible
03 Aug 2.8 06:15:26 10° SSE 06:19:37 80° ENE 06:23:39 10° N visible
03 Aug 4.8 16:58:20 10° NE 17:02:00 31° ESE 17:05:46 10° S visible
04 Aug 2.8 06:14:08 10° SSE 06:18:18 77° ENE 06:22:18 10° N visible
04 Aug 4.9 16:57:03 10° NE 17:00:42 30° ESE 17:04:25 10° S visible
04 Aug 4.4 18:32:36 10° NW 18:35:35 19° W 18:38:37 10° SW visible
05 Aug 2.8 06:12:49 10° SSE 06:16:59 74° ENE 06:20:58 10° N visible
05 Aug 4.9 16:55:46 10° NE 16:59:23 29° ESE 17:03:04 10° SSE visible
05 Aug 4.4 18:31:11 10° NW 18:34:14 20° W 18:37:22 10° SW visible
06 Aug 2.8 06:11:30 10° SSE 06:15:38 70° E 06:19:36 10° N visible
06 Aug 5.0 16:54:29 10° NE 16:58:04 28° ESE 17:01:42 10° SSE visible
06 Aug 4.3 18:29:46 10° NW 18:32:54 20° W 18:36:06 10° SW visible
07 Aug 2.8 06:10:11 10° SSE 06:14:18 67° E 06:18:15 10° N visible
07 Aug 5.1 16:53:12 10° NE 16:56:45 27° ESE 17:00:20 10° SSE visible
07 Aug 4.3 18:28:21 10° NW 18:31:33 21° W 18:34:50 10° SW visible
08 Aug 2.9 06:08:52 10° SSE 06:12:57 64° E 06:16:52 10° N visible
08 Aug 5.2 16:51:55 10° NE 16:55:25 26° ESE 16:58:58 10° SSE visible
08 Aug 4.2 18:26:55 10° NNW 18:30:12 22° W 18:33:33 10° SW visible
